Location: Lafig�re
(44.4503°N, 4.0357°E)
Time: 16:13:21
(UTC+00:00)

CZ-2C R/B - Pass Details

Date: 24 September 2020
Orbit: 785 x 870 km, 98.2° (Epoch: 20 October)

Event Time Altitude Azimuth Distance (km) Brightness Sun altitude
Rises 19:06:18 0° 17° (NNE) 3,437 5.9 -16.6°
Reaches altitude 10° 19:08:44 10° 22° (NNE) 2,505 5.1 -17.0°
Maximum altitude 19:14:13 56° 100° (E) 1,026 2.8 -18.0°
Drops below altitude 10° 19:19:43 10° 178° (S) 2,509 5.0 -18.9°
Sets 19:22:09 0° 183° (S) 3,441 5.7 -19.3°
